Wetterdaten: Montag, 20.06.2005
Datum Zeit Temp. A Sch. Temp. A Son. Feuchte A. Luftdruck Regen Wind Richtung Richtung Sonnenschein Helligkeit Taupunkt Windchill
20.06.2005 00:00 15,9 C 17,8 C 75 % 1019 hPa 0,0 l/m 0,0 m/s (0 Bft) O-NO 60 0,00 min 0 lux 11,5 C 15,9 C
20.06.2005 00:05 15,7 C 17,8 C 76 % 1019 hPa 0,0 l/m 0,0 m/s (0 Bft) O-NO 60 0,00 min 0 lux 11,5 C 15,7 C
20.06.2005 00:10 15,6 C 17,8 C 76 % 1019 hPa 0,0 l/m 0,0 m/s (0 Bft) NW 315 0,00 min 0 lux 11,4 C 15,6 C
20.06.2005 00:15 15,5 C 17,8 C 77 % 1019 hPa 0,0 l/m 0,0 m/s (0 Bft) NW 315 0,00 min 0 lux 11,5 C 15,5 C
20.06.2005 00:20 15,3 C 17,8 C 78 % 1019 hPa 0,0 l/m 0,0 m/s (0 Bft) NW 315 0,00 min 0 lux 11,5 C 15,3 C
20.06.2005 00:25 15,5 C 17,8 C 78 % 1019 hPa 0,0 l/m 0,0 m/s (0 Bft) NW 315 0,00 min 0 lux 11,7 C 15,5 C
20.06.2005 00:30 15,0 C 17,8 C 78 % 1019 hPa 0,0 l/m 0,0 m/s (0 Bft) NW 310 0,00 min 0 lux 11,2 C 15,0 C
20.06.2005 00:35 14,9 C 17,8 C 79 % 1019 hPa 0,0 l/m 0,0 m/s (0 Bft) NW 310 0,00 min 0 lux 11,3 C 14,9 C
20.06.2005 00:40 14,9 C 17,8 C 80 % 1019 hPa 0,0 l/m 0,0 m/s (0 Bft) NW 310 0,00 min 0 lux 11,5 C 14,9 C
20.06.2005 00:45 14,9 C 16,6 C 81 % 1019 hPa 0,0 l/m 0,0 m/s (0 Bft) NW 310 0,00 min 0 lux 11,7 C 14,9 C
20.06.2005 00:50 14,8 C 16,6 C 81 % 1019 hPa 0,0 l/m 0,0 m/s (0 Bft) NW 310 0,00 min 0 lux 11,6 C 14,8 C
20.06.2005 00:55 14,5 C 16,6 C 81 % 1019 hPa 0,0 l/m 0,0 m/s (0 Bft) NW 310 0,00 min 0 lux 11,3 C 14,5 C
20.06.2005 01:00 14,5 C 16,3 C 80 % 1019 hPa 0,0 l/m 0,0 m/s (0 Bft) NW 315 0,00 min 0 lux 11,1 C 14,5 C
20.06.2005 01:05 14,3 C 16,3 C 81 % 1019 hPa 0,0 l/m 0,0 m/s (0 Bft) NW 315 0,00 min 0 lux 11,1 C 14,3 C
20.06.2005 01:10 14,2 C 16,3 C 81 % 1019 hPa 0,0 l/m 0,0 m/s (0 Bft) NW 315 0,00 min 0 lux 11,0 C 14,2 C
20.06.2005 01:15 14,1 C 16,3 C 81 % 1019 hPa 0,0 l/m 0,0 m/s (0 Bft) NW 315 0,00 min 0 lux 10,9 C 14,1 C
20.06.2005 01:20 14,1 C 16,3 C 81 % 1019 hPa 0,0 l/m 0,0 m/s (0 Bft) NW 315 0,00 min 0 lux 10,9 C 14,1 C
20.06.2005 01:25 14,0 C 15,7 C 82 % 1019 hPa 0,0 l/m 0,0 m/s (0 Bft) NW 315 0,00 min 0 lux 11,0 C 14,0 C
20.06.2005 01:30 13,9 C 15,7 C 83 % 1019 hPa 0,0 l/m 0,0 m/s (0 Bft) NW 315 0,00 min 0 lux 11,1 C 13,9 C
20.06.2005 01:35 13,8 C 15,7 C 83 % 1019 hPa 0,0 l/m 0,0 m/s (0 Bft) NW 315 0,00 min 0 lux 11,0 C 13,8 C
20.06.2005 01:40 13,7 C 15,7 C 83 % 1019 hPa 0,0 l/m 0,0 m/s (0 Bft) NW 315 0,00 min 0 lux 10,9 C 13,7 C
20.06.2005 01:45 13,7 C 15,5 C 84 % 1019 hPa 0,0 l/m 0,0 m/s (0 Bft) NW 315 0,00 min 0 lux 11,0 C 13,7 C
20.06.2005 01:50 13,7 C 15,3 C 84 % 1019 hPa 0,0 l/m 0,0 m/s (0 Bft) NW 315 0,00 min 0 lux 11,0 C 13,7 C
20.06.2005 01:55 13,7 C 15,2 C 84 % 1019 hPa 0,0 l/m 0,0 m/s (0 Bft) NW 315 0,00 min 0 lux 11,0 C 13,7 C
20.06.2005 02:00 13,6 C 15,1 C 85 % 1019 hPa 0,0 l/m 0,0 m/s (0 Bft) NW 315 0,00 min 0 lux 11,1 C 13,6 C
20.06.2005 02:05 13,5 C 15,0 C 85 % 1019 hPa 0,0 l/m 0,0 m/s (0 Bft) NW 315 0,00 min 0 lux 11,0 C 13,5 C
20.06.2005 02:10 13,5 C 14,9 C 85 % 1019 hPa 0,0 l/m 0,0 m/s (0 Bft) NW 315 0,00 min 0 lux 11,0 C 13,5 C
20.06.2005 02:15 13,2 C 14,9 C 85 % 1019 hPa 0,0 l/m 0,0 m/s (0 Bft) NW 315 0,00 min 0 lux 10,7 C 13,2 C
20.06.2005 02:20 13,2 C 14,7 C 85 % 1019 hPa 0,0 l/m 0,0 m/s (0 Bft) NW 315 0,00 min 0 lux 10,7 C 13,2 C
20.06.2005 02:25 13,1 C 14,7 C 85 % 1019 hPa 0,0 l/m 0,0 m/s (0 Bft) NW 315 0,00 min 0 lux 10,6 C 13,1 C
20.06.2005 02:30 13,0 C 14,6 C 86 % 1019 hPa 0,0 l/m 0,0 m/s (0 Bft) NW 315 0,00 min 0 lux 10,7 C 13,0 C
20.06.2005 02:35 13,0 C 14,5 C 86 % 1019 hPa 0,0 l/m 0,0 m/s (0 Bft) NW 315 0,00 min 0 lux 10,7 C 13,0 C
20.06.2005 02:40 13,0 C 14,4 C 86 % 1019 hPa 0,0 l/m 0,0 m/s (0 Bft) NW 315 0,00 min 0 lux 10,7 C 13,0 C
20.06.2005 02:45 12,8 C 14,4 C 87 % 1019 hPa 0,0 l/m 0,0 m/s (0 Bft) NW 315 0,00 min 0 lux 10,7 C 12,8 C
20.06.2005 02:50 12,8 C 14,3 C 87 % 1019 hPa 0,0 l/m 0,0 m/s (0 Bft) NW 315 0,00 min 0 lux 10,7 C 12,8 C
20.06.2005 02:55 12,7 C 14,2 C 87 % 1019 hPa 0,0 l/m 0,0 m/s (0 Bft) NW 315 0,00 min 0 lux 10,6 C 12,7 C
20.06.2005 03:00 12,7 C 14,1 C 88 % 1019 hPa 0,0 l/m 0,0 m/s (0 Bft) NW 315 0,00 min 0 lux 10,8 C 12,7 C
20.06.2005 03:05 12,6 C 14,1 C 88 % 1019 hPa 0,0 l/m 0,0 m/s (0 Bft) NW 315 0,00 min 0 lux 10,7 C 12,6 C
20.06.2005 03:10 12,4 C 14,0 C 88 % 1019 hPa 0,0 l/m 0,0 m/s (0 Bft) NW 315 0,00 min 0 lux 10,5 C 12,4 C
20.06.2005 03:15 12,4 C 13,9 C 88 % 1019 hPa 0,0 l/m 0,0 m/s (0 Bft) NW 315 0,00 min 0 lux 10,5 C 12,4 C
20.06.2005 03:20 12,2 C 13,9 C 87 % 1019 hPa 0,0 l/m 0,0 m/s (0 Bft) NW 315 0,00 min 0 lux 10,1 C 12,2 C
20.06.2005 03:25 12,2 C 13,8 C 87 % 1019 hPa 0,0 l/m 0,0 m/s (0 Bft) NW 315 0,00 min 0 lux 10,1 C 12,2 C
20.06.2005 03:30 12,1 C 13,7 C 88 % 1019 hPa 0,0 l/m 0,0 m/s (0 Bft) NW 315 0,00 min 0 lux 10,2 C 12,1 C
20.06.2005 03:35 12,2 C 13,6 C 88 % 1019 hPa 0,0 l/m 0,0 m/s (0 Bft) NW 315 0,00 min 0 lux 10,3 C 12,2 C
20.06.2005 03:40 12,0 C 13,5 C 88 % 1019 hPa 0,0 l/m 0,0 m/s (0 Bft) NW 315 0,00 min 0 lux 10,1 C 12,0 C
20.06.2005 03:45 12,0 C 13,4 C 88 % 1019 hPa 0,0 l/m 0,0 m/s (0 Bft) NW 315 0,00 min 0 lux 10,1 C 12,0 C
20.06.2005 03:50 11,9 C 13,4 C 89 % 1019 hPa 0,0 l/m 0,0 m/s (0 Bft) NW 315 0,00 min 0 lux 10,1 C 11,9 C
20.06.2005 03:55 11,9 C 13,3 C 89 % 1019 hPa 0,0 l/m 0,0 m/s (0 Bft) NW 315 0,00 min 0 lux 10,1 C 11,9 C
20.06.2005 04:00 11,9 C 13,3 C 89 % 1019 hPa 0,0 l/m 0,0 m/s (0 Bft) NW 315 0,00 min 0 lux 10,1 C 11,9 C
20.06.2005 04:05 11,8 C 13,2 C 89 % 1019 hPa 0,0 l/m 0,0 m/s (0 Bft) NW 315 0,00 min 0 lux 10,0 C 11,8 C
20.06.2005 04:10 11,7 C 13,1 C 89 % 1019 hPa 0,0 l/m 0,0 m/s (0 Bft) NW 315 0,00 min 0 lux 9,9 C 11,7 C
20.06.2005 04:15 11,7 C 13,1 C 89 % 1019 hPa 0,0 l/m 0,0 m/s (0 Bft) NW 315 0,00 min 0 lux 9,9 C 11,7 C
20.06.2005 04:20 11,5 C 13,1 C 89 % 1018 hPa 0,0 l/m 0,0 m/s (0 Bft) NW 315 0,00 min 0 lux 9,8 C 11,5 C
20.06.2005 04:25 11,6 C 13,0 C 89 % 1019 hPa 0,0 l/m 0,0 m/s (0 Bft) NW 315 0,00 min 0 lux 9,8 C 11,6 C
20.06.2005 04:30 11,6 C 12,9 C 89 % 1019 hPa 0,0 l/m 0,0 m/s (0 Bft) NW 315 0,00 min 0 lux 9,8 C 11,6 C
20.06.2005 04:35 11,5 C 12,9 C 89 % 1019 hPa 0,0 l/m 0,0 m/s (0 Bft) NW 315 0,00 min 0 lux 9,8 C 11,5 C
20.06.2005 04:40 11,5 C 12,8 C 89 % 1018 hPa 0,0 l/m 0,0 m/s (0 Bft) NW 315 0,00 min 0 lux 9,8 C 11,5 C
20.06.2005 04:45 11,6 C 12,8 C 90 % 1018 hPa 0,0 l/m 0,0 m/s (0 Bft) NW 315 0,00 min 0 lux 10,0 C 11,6 C
20.06.2005 04:50 11,6 C 12,7 C 90 % 1018 hPa 0,0 l/m 0,0 m/s (0 Bft) N-NO 15 0,00 min 60 lux 10,0 C 11,6 C
20.06.2005 04:55 11,5 C 12,7 C 90 % 1018 hPa 0,0 l/m 0,0 m/s (0 Bft) N-NO 15 0,00 min 103 lux 9,9 C 11,5 C
20.06.2005 05:00 11,5 C 12,7 C 90 % 1018 hPa 0,0 l/m 0,0 m/s (0 Bft) N-NO 15 0,00 min 170 lux 9,9 C 11,5 C
20.06.2005 05:05 11,5 C 12,6 C 90 % 1018 hPa 0,0 l/m 0,0 m/s (0 Bft) N-NO 15 0,00 min 215 lux 9,9 C 11,5 C
20.06.2005 05:10 11,4 C 12,6 C 90 % 1018 hPa 0,0 l/m 0,0 m/s (0 Bft) N-NO 15 0,00 min 334 lux 9,8 C 11,4 C
20.06.2005 05:15 11,5 C 12,5 C 90 % 1018 hPa 0,0 l/m 0,0 m/s (0 Bft) N-NO 15 0,00 min 497 lux 9,9 C 11,5 C
20.06.2005 05:20 11,5 C 12,5 C 91 % 1018 hPa 0,0 l/m 0,0 m/s (0 Bft) N-NO 15 0,00 min 709 lux 10,1 C 11,5 C
20.06.2005 05:25 11,5 C 12,5 C 91 % 1019 hPa 0,0 l/m 0,0 m/s (0 Bft) N-NO 15 0,00 min 831 lux 10,1 C 11,5 C
20.06.2005 05:30 11,4 C 12,4 C 91 % 1019 hPa 0,0 l/m 0,0 m/s (0 Bft) N45 5 0,00 min 1,25 klux 10,0 C 11,4 C
20.06.2005 05:35 11,5 C 12,4 C 91 % 1019 hPa 0,0 l/m 0,0 m/s (0 Bft) W 280 0,00 min 1,57 klux 10,1 C 11,5 C
20.06.2005 05:40 11,3 C 12,4 C 91 % 1019 hPa 0,0 l/m 0,0 m/s (0 Bft) W 275 0,00 min 1,90 klux 9,9 C 11,3 C
20.06.2005 05:45 11,2 C 12,3 C 91 % 1019 hPa 0,0 l/m 0,0 m/s (0 Bft) W 275 0,00 min 2,24 klux 9,8 C 11,2 C
20.06.2005 05:50 11,3 C 12,3 C 91 % 1019 hPa 0,0 l/m 0,0 m/s (0 Bft) W 275 0,00 min 2,58 klux 9,9 C 11,3 C
20.06.2005 05:55 11,3 C 12,3 C 91 % 1019 hPa 0,0 l/m 0,0 m/s (0 Bft) W 275 0,00 min 3,14 klux 9,9 C 11,3 C
20.06.2005 06:00 11,3 C 12,3 C 91 % 1019 hPa 0,0 l/m 0,0 m/s (0 Bft) W 275 0,00 min 3,49 klux 9,9 C 11,3 C
20.06.2005 06:05 11,2 C 12,3 C 91 % 1019 hPa 0,0 l/m 0,0 m/s (0 Bft) W 275 0,00 min 3,66 klux 9,8 C 11,2 C
20.06.2005 06:10 11,2 C 12,3 C 91 % 1019 hPa 0,0 l/m 0,0 m/s (0 Bft) W 275 0,00 min 3,97 klux 9,8 C 11,2 C
20.06.2005 06:15 11,3 C 12,3 C 91 % 1019 hPa 0,0 l/m 0,0 m/s (0 Bft) W 275 0,00 min 4,27 klux 9,9 C 11,3 C
20.06.2005 06:20 11,4 C 12,3 C 91 % 1019 hPa 0,0 l/m 0,0 m/s (0 Bft) W 275 0,00 min 7,97 klux 10,0 C 11,4 C
20.06.2005 06:25 11,5 C 12,3 C 91 % 1019 hPa 0,0 l/m 0,0 m/s (0 Bft) W 275 5,00 min 15,5 klux 10,1 C 11,5 C
20.06.2005 06:30 11,6 C 12,3 C 91 % 1019 hPa 0,0 l/m 0,0 m/s (0 Bft) W 275 5,00 min 19,1 klux 10,2 C 11,6 C
20.06.2005 06:35 11,7 C 12,3 C 91 % 1019 hPa 0,0 l/m 0,0 m/s (0 Bft) W 275 5,00 min 20,6 klux 10,3 C 11,7 C
20.06.2005 06:40 12,7 C 12,4 C 92 % 1018 hPa 0,0 l/m 0,0 m/s (0 Bft) W 275 5,00 min 22,1 klux 11,4 C 12,7 C
20.06.2005 06:45 12,7 C 12,4 C 92 % 1018 hPa 0,0 l/m 0,0 m/s (0 Bft) W 275 5,00 min 23,6 klux 11,4 C 12,7 C
20.06.2005 06:50 17,0 C 12,5 C 88 % 1018 hPa 0,0 l/m 0,0 m/s (0 Bft) W 275 5,00 min 25,0 klux 15,0 C 17,0 C
20.06.2005 06:55 18,9 C 12,6 C 59 % 1019 hPa 0,0 l/m 0,0 m/s (0 Bft) W 275 5,00 min 25,7 klux 10,7 C 18,9 C
20.06.2005 07:00 19,4 C 12,6 C 53 % 1019 hPa 0,0 l/m 0,0 m/s (0 Bft) W 275 5,00 min 27,3 klux 9,6 C 19,4 C
20.06.2005 07:05 19,5 C 12,8 C 47 % 1018 hPa 0,0 l/m 0,0 m/s (0 Bft) W 270 5,00 min 28,6 klux 7,9 C 19,5 C
20.06.2005 07:10 19,5 C 12,9 C 51 % 1018 hPa 0,0 l/m 0,0 m/s (0 Bft) S 180 5,00 min 30,0 klux 9,1 C 19,5 C
20.06.2005 07:15 21,0 C 13,0 C 49 % 1018 hPa 0,0 l/m 0,0 m/s (0 Bft) S 180 5,00 min 31,3 klux 9,9 C 21,0 C
20.06.2005 07:20 21,7 C 13,1 C 45 % 1018 hPa 0,0 l/m 0,0 m/s (0 Bft) S 180 5,00 min 32,6 klux 9,2 C 21,7 C
20.06.2005 07:25 20,8 C 13,3 C 46 % 1018 hPa 0,0 l/m 0,0 m/s (0 Bft) S 180 5,00 min 33,9 klux 8,8 C 20,8 C
20.06.2005 07:30 20,8 C 13,5 C 46 % 1018 hPa 0,0 l/m 0,0 m/s (0 Bft) S 180 5,00 min 35,2 klux 8,8 C 20,8 C
20.06.2005 07:35 22,4 C 13,5 C 43 % 1018 hPa 0,0 l/m 0,0 m/s (0 Bft) S 180 5,00 min 36,6 klux 9,2 C 22,4 C
20.06.2005 07:40 22,9 C 13,7 C 41 % 1018 hPa 0,0 l/m 0,0 m/s (0 Bft) S 180 5,00 min 37,7 klux 8,9 C 22,9 C
20.06.2005 07:45 23,1 C 13,9 C 39 % 1018 hPa 0,0 l/m 0,0 m/s (0 Bft) S 180 5,00 min 38,9 klux 8,4 C 23,1 C
20.06.2005 07:50 22,6 C 14,0 C 40 % 1018 hPa 0,0 l/m 0,0 m/s (0 Bft) S 180 5,00 min 39,6 klux 8,3 C 22,6 C
20.06.2005 07:55 24,1 C 14,3 C 38 % 1018 hPa 0,0 l/m 0,0 m/s (0 Bft) S 175 5,00 min 40,9 klux 8,9 C 24,1 C
20.06.2005 08:00 24,4 C 14,5 C 37 % 1018 hPa 0,0 l/m 0,0 m/s (0 Bft) S 175 5,00 min 41,8 klux 8,8 C 24,4 C
20.06.2005 08:05 24,9 C 14,7 C 38 % 1018 hPa 0,0 l/m 0,0 m/s (0 Bft) S 175 5,00 min 43,0 klux 9,6 C 24,9 C
20.06.2005 08:10 24,3 C 14,7 C 37 % 1018 hPa 0,0 l/m 0,0 m/s (0 Bft) S 175 5,00 min 44,2 klux 8,7 C 24,3 C
20.06.2005 08:15 25,7 C 15,2 C 35 % 1018 hPa 0,0 l/m 0,0 m/s (0 Bft) S 175 5,00 min 45,3 klux 9,1 C 25,7 C
20.06.2005 08:20 26,0 C 15,5 C 35 % 1018 hPa 0,0 l/m 0,0 m/s (0 Bft) S 175 5,00 min 46,5 klux 9,3 C 26,0 C
20.06.2005 08:25 25,6 C 15,7 C 36 % 1018 hPa 0,0 l/m 0,0 m/s (0 Bft) S 175 5,00 min 47,6 klux 9,4 C 25,6 C
20.06.2005 08:30 25,8 C 15,9 C 36 % 1018 hPa 0,0 l/m 0,0 m/s (0 Bft) S-SW 210 5,00 min 48,2 klux 9,6 C 25,8 C
20.06.2005 08:35 26,1 C 15,9 C 35 % 1018 hPa 0,0 l/m 0,1 m/s (0 Bft) SO22.5 125 5,00 min 50,0 klux 9,4 C 26,1 C
20.06.2005 08:40 25,2 C 16,7 C 35 % 1018 hPa 0,0 l/m 1,4 m/s (1 Bft) O45 95 5,00 min 50,6 klux 8,6 C 25,2 C
20.06.2005 08:45 23,7 C 17,0 C 40 % 1018 hPa 0,0 l/m 1,8 m/s (1 Bft) O-SO45 105 5,00 min 51,7 klux 9,3 C 23,6 C
20.06.2005 08:50 22,7 C 17,3 C 47 % 1018 hPa 0,0 l/m 1,8 m/s (1 Bft) O-SO45 105 5,00 min 52,8 klux 10,8 C 22,7 C
20.06.2005 08:55 22,6 C 17,7 C 49 % 1018 hPa 0,0 l/m 2,8 m/s (1 Bft) O-SO22.5 110 5,00 min 54,1 klux 11,3 C 21,5 C
20.06.2005 09:00 22,0 C 17,9 C 48 % 1018 hPa 0,0 l/m 2,3 m/s (1 Bft) O-SO67.5 105 5,00 min 55,1 klux 10,5 C 21,4 C
20.06.2005 09:05 22,3 C 18,1 C 50 % 1018 hPa 0,0 l/m 3,3 m/s (1 Bft) O45 95 5,00 min 56,3 klux 11,4 C 20,7 C
20.06.2005 09:10 22,5 C 18,6 C 50 % 1018 hPa 0,0 l/m 2,8 m/s (1 Bft) O-SO22.5 110 5,00 min 57,3 klux 11,5 C 21,4 C
20.06.2005 09:15 22,6 C 18,8 C 49 % 1018 hPa 0,0 l/m 3,2 m/s (1 Bft) O-SO45 110 5,00 min 58,4 klux 11,3 C 21,1 C
20.06.2005 09:20 22,9 C 18,8 C 49 % 1018 hPa 0,0 l/m 3,9 m/s (1 Bft) O-SO45 120 5,00 min 58,9 klux 11,6 C 20,9 C
20.06.2005 09:25 23,1 C 19,4 C 50 % 1018 hPa 0,0 l/m 4,3 m/s (1 Bft) O-SO45 115 5,00 min 60,5 klux 12,1 C 21,0 C
20.06.2005 09:30 23,4 C 19,6 C 48 % 1018 hPa 0,0 l/m 3,4 m/s (1 Bft) O-SO45 105 5,00 min 61,8 klux 11,8 C 21,9 C
20.06.2005 09:35 23,3 C 19,8 C 43 % 1018 hPa 0,0 l/m 4,0 m/s (1 Bft) O-SO22.5 115 5,00 min 62,3 klux 10,0 C 21,4 C
20.06.2005 09:40 23,5 C 20,1 C 44 % 1018 hPa 0,0 l/m 3,7 m/s (1 Bft) O-SO45 115 5,00 min 63,3 klux 10,5 C 21,8 C
20.06.2005 09:45 23,5 C 20,4 C 43 % 1018 hPa 0,0 l/m 4,2 m/s (1 Bft) O-SO45 115 5,00 min 64,3 klux 10,2 C 21,5 C
20.06.2005 09:50 23,6 C 20,7 C 43 % 1018 hPa 0,0 l/m 4,1 m/s (1 Bft) SO22.5 130 5,00 min 65,3 klux 10,3 C 21,7 C
20.06.2005 09:55 23,9 C 21,8 C 42 % 1018 hPa 0,0 l/m 3,3 m/s (1 Bft) O22.5 100 5,00 min 66,3 klux 10,2 C 22,6 C
20.06.2005 10:00 24,1 C 23,0 C 42 % 1018 hPa 0,0 l/m 3,8 m/s (1 Bft) O-SO45 115 5,00 min 67,4 klux 10,4 C 22,4 C
20.06.2005 10:05 23,7 C 23,5 C 41 % 1018 hPa 0,0 l/m 4,6 m/s (1 Bft) O45 100 5,00 min 68,3 klux 9,7 C 21,5 C
20.06.2005 10:10 24,1 C 24,7 C 41 % 1018 hPa 0,0 l/m 4,3 m/s (1 Bft) SO45 125 5,00 min 69,3 klux 10,0 C 22,2 C
20.06.2005 10:15 24,2 C 25,8 C 41 % 1018 hPa 0,0 l/m 3,5 m/s (1 Bft) O45 100 5,00 min 70,3 klux 10,1 C 22,8 C
20.06.2005 10:20 24,5 C 26,5 C 40 % 1018 hPa 0,0 l/m 3,5 m/s (1 Bft) O-SO67.5 105 5,00 min 71,2 klux 10,0 C 23,1 C
20.06.2005 10:25 24,8 C 26,9 C 40 % 1018 hPa 0,0 l/m 2,8 m/s (1 Bft) O-SO45 115 5,00 min 71,7 klux 10,3 C 23,9 C
20.06.2005 10:30 24,3 C 27,5 C 40 % 1018 hPa 0,0 l/m 3,4 m/s (1 Bft) O45 95 5,00 min 72,7 klux 9,8 C 22,9 C
20.06.2005 10:35 24,3 C 28,3 C 40 % 1018 hPa 0,0 l/m 3,1 m/s (1 Bft) O-SO45 105 5,00 min 73,3 klux 9,8 C 23,2 C
20.06.2005 10:40 25,0 C 28,3 C 39 % 1018 hPa 0,0 l/m 3,4 m/s (1 Bft) O-SO45 105 5,00 min 74,1 klux 10,1 C 23,7 C
20.06.2005 10:45 25,3 C 28,9 C 40 % 1018 hPa 0,0 l/m 4,2 m/s (1 Bft) O-SO45 120 5,00 min 75,2 klux 10,7 C 23,6 C
20.06.2005 10:50 25,7 C 29,7 C 39 % 1018 hPa 0,0 l/m 3,7 m/s (1 Bft) SO22.5 125 5,00 min 76,1 klux 10,7 C 24,4 C
20.06.2005 10:55 25,0 C 30,1 C 37 % 1018 hPa 0,0 l/m 2,8 m/s (1 Bft) O-SO67.5 115 5,00 min 77,0 klux 9,3 C 24,1 C
20.06.2005 11:00 26,1 C 30,1 C 39 % 1018 hPa 0,0 l/m 1,2 m/s (1 Bft) O-SO45 120 5,00 min 77,5 klux 11,0 C 26,1 C
20.06.2005 11:05 25,9 C 30,7 C 38 % 1018 hPa 0,0 l/m 2,4 m/s (1 Bft) SO22.5 125 5,00 min 78,4 klux 10,5 C 25,4 C
20.06.2005 11:10 25,9 C 31,2 C 37 % 1018 hPa 0,0 l/m 4,0 m/s (1 Bft) O22.5 95 5,00 min 79,1 klux 10,1 C 24,5 C
20.06.2005 11:15 26,8 C 31,6 C 36 % 1018 hPa 0,0 l/m 3,6 m/s (1 Bft) SO45 125 5,00 min 80,0 klux 10,5 C 25,8 C
20.06.2005 11:20 26,5 C 31,6 C 36 % 1018 hPa 0,0 l/m 3,5 m/s (1 Bft) O-SO45 115 5,00 min 80,1 klux 10,2 C 25,4 C
20.06.2005 11:25 27,0 C 31,9 C 35 % 1018 hPa 0,0 l/m 3,3 m/s (1 Bft) SO22.5 125 5,00 min 80,9 klux 10,2 C 26,1 C
20.06.2005 11:30 26,2 C 32,0 C 35 % 1018 hPa 0,0 l/m 2,3 m/s (1 Bft) O67.5 85 5,00 min 81,4 klux 9,5 C 25,8 C
20.06.2005 11:35 26,4 C 32,1 C 35 % 1018 hPa 0,0 l/m 2,8 m/s (1 Bft) O-SO22.5 105 5,00 min 82,2 klux 9,7 C 25,7 C
20.06.2005 11:40 26,4 C 32,7 C 35 % 1018 hPa 0,0 l/m 3,2 m/s (1 Bft) O-SO22.5 115 5,00 min 82,8 klux 9,7 C 25,5 C
20.06.2005 11:45 26,8 C 32,8 C 34 % 1018 hPa 0,0 l/m 4,3 m/s (1 Bft) O-SO67.5 120 5,00 min 83,6 klux 9,6 C 25,4 C
20.06.2005 11:50 26,9 C 32,9 C 33 % 1018 hPa 0,0 l/m 3,4 m/s (1 Bft) O-SO45 110 5,00 min 84,2 klux 9,3 C 26,0 C
20.06.2005 11:55 27,1 C 33,4 C 33 % 1018 hPa 0,0 l/m 1,8 m/s (1 Bft) O-SO67.5 110 5,00 min 84,9 klux 9,4 C 27,1 C
20.06.2005 12:00 26,9 C 33,3 C 33 % 1018 hPa 0,0 l/m 3,8 m/s (1 Bft) O-SO45 115 5,00 min 85,1 klux 9,3 C 25,8 C
20.06.2005 12:05 26,8 C 33,7 C 32 % 1018 hPa 0,0 l/m 3,3 m/s (1 Bft) O-SO22.5 115 5,00 min 85,7 klux 8,7 C 25,9 C
20.06.2005 12:10 27,3 C 33,9 C 31 % 1018 hPa 0,0 l/m 3,1 m/s (1 Bft) O67.5 90 5,00 min 85,8 klux 8,7 C 26,6 C
20.06.2005 12:15 27,5 C 33,9 C 32 % 1018 hPa 0,0 l/m 2,2 m/s (1 Bft) SO67.5 145 5,00 min 86,2 klux 9,3 C 27,3 C
20.06.2005 12:20 27,7 C 33,8 C 31 % 1018 hPa 0,0 l/m 2,3 m/s (1 Bft) S45 180 5,00 min 86,9 klux 9,0 C 27,4 C
20.06.2005 12:25 27,6 C 34,0 C 32 % 1018 hPa 0,0 l/m 1,8 m/s (1 Bft) SO45 135 5,00 min 87,3 klux 9,4 C 27,6 C
20.06.2005 12:30 27,5 C 34,2 C 30 % 1018 hPa 0,0 l/m 4,3 m/s (1 Bft) SO45 130 5,00 min 87,7 klux 8,4 C 26,3 C
20.06.2005 12:35 27,8 C 34,2 C 31 % 1018 hPa 0,0 l/m 4,3 m/s (1 Bft) O-SO45 120 5,00 min 88,1 klux 9,1 C 26,7 C
20.06.2005 12:40 27,6 C 34,3 C 31 % 1018 hPa 0,0 l/m 2,3 m/s (1 Bft) SO45 130 5,00 min 88,4 klux 8,9 C 27,3 C
20.06.2005 12:45 27,6 C 34,6 C 30 % 1018 hPa 0,0 l/m 0,8 m/s (0 Bft) SO67.5 125 5,00 min 88,7 klux 8,4 C 27,6 C
20.06.2005 12:50 28,0 C 35,1 C 32 % 1018 hPa 0,0 l/m 0,2 m/s (0 Bft) S-SO 165 5,00 min 88,8 klux 9,7 C 28,0 C
20.06.2005 12:55 28,4 C 35,2 C 30 % 1018 hPa 0,0 l/m 4,1 m/s (1 Bft) SO67.5 135 5,00 min 89,0 klux 9,1 C 27,5 C
20.06.2005 13:00 28,3 C 35,2 C 27 % 1018 hPa 0,0 l/m 4,3 m/s (1 Bft) SO45 145 5,00 min 89,3 klux 7,5 C 27,3 C
20.06.2005 13:05 28,6 C 35,1 C 30 % 1018 hPa 0,0 l/m 4,0 m/s (1 Bft) SO67.5 130 5,00 min 89,4 klux 9,3 C 27,7 C
20.06.2005 13:10 28,6 C 35,3 C 29 % 1018 hPa 0,0 l/m 3,0 m/s (1 Bft) O-SO22.5 115 5,00 min 89,4 klux 8,8 C 28,1 C
20.06.2005 13:15 28,2 C 35,5 C 29 % 1018 hPa 0,0 l/m 3,3 m/s (1 Bft) O-SO22.5 105 5,00 min 89,6 klux 8,5 C 27,5 C
20.06.2005 13:20 28,6 C 36,1 C 30 % 1018 hPa 0,0 l/m 2,4 m/s (1 Bft) SO67.5 135 5,00 min 89,9 klux 9,3 C 28,3 C
20.06.2005 13:25 28,3 C 36,3 C 27 % 1018 hPa 0,0 l/m 4,1 m/s (1 Bft) O-SO67.5 110 5,00 min 90,1 klux 7,5 C 27,3 C
20.06.2005 13:30 28,6 C 36,0 C 30 % 1018 hPa 0,0 l/m 2,9 m/s (1 Bft) S-SO67.5 160 5,00 min 90,1 klux 9,3 C 28,1 C
20.06.2005 13:35 28,9 C 36,1 C 30 % 1017 hPa 0,0 l/m 3,9 m/s (1 Bft) SO67.5 135 5,00 min 89,9 klux 9,6 C 28,1 C
20.06.2005 13:40 28,5 C 36,2 C 27 % 1017 hPa 0,0 l/m 2,6 m/s (1 Bft) O-SO45 120 5,00 min 90,0 klux 7,7 C 28,1 C
20.06.2005 13:45 29,0 C 36,5 C 29 % 1018 hPa 0,0 l/m 3,1 m/s (1 Bft) O67.5 80 5,00 min 90,1 klux 9,1 C 28,5 C
20.06.2005 13:50 28,7 C 36,3 C 29 % 1018 hPa 0,0 l/m 2,6 m/s (1 Bft) S-SO45 150 5,00 min 90,2 klux 8,9 C 28,3 C
20.06.2005 13:55 28,6 C 36,5 C 27 % 1018 hPa 0,0 l/m 2,9 m/s (1 Bft) O-SO45 115 5,00 min 90,2 klux 7,8 C 28,1 C
20.06.2005 14:00 28,6 C 36,4 C 29 % 1018 hPa 0,0 l/m 2,7 m/s (1 Bft) S67.5 175 5,00 min 89,4 klux 8,8 C 28,2 C
20.06.2005 14:05 29,3 C 36,6 C 29 % 1017 hPa 0,0 l/m 3,1 m/s (1 Bft) O-SO22.5 115 5,00 min 89,9 klux 9,4 C 28,8 C
20.06.2005 14:10 29,3 C 37,4 C 27 % 1017 hPa 0,0 l/m 2,9 m/s (1 Bft) O-SO45 115 5,00 min 89,6 klux 8,3 C 28,9 C
20.06.2005 14:15 28,5 C 37,1 C 27 % 1017 hPa 0,0 l/m 3,5 m/s (1 Bft) O-NO67.5 75 5,00 min 89,1 klux 7,7 C 27,8 C
20.06.2005 14:20 28,5 C 37,0 C 27 % 1017 hPa 0,0 l/m 3,3 m/s (1 Bft) O-SO22.5 110 5,00 min 89,2 klux 7,7 C 27,8 C
20.06.2005 14:25 28,9 C 37,8 C 29 % 1017 hPa 0,0 l/m 1,8 m/s (1 Bft) W-SW22.5 245 5,00 min 88,4 klux 9,1 C 28,9 C
20.06.2005 14:30 29,4 C 38,2 C 28 % 1017 hPa 0,0 l/m 2,3 m/s (1 Bft) O-SO67.5 110 5,00 min 88,6 klux 9,0 C 29,2 C
20.06.2005 14:35 29,6 C 38,8 C 28 % 1017 hPa 0,0 l/m 2,4 m/s (1 Bft) O-SO67.5 120 5,00 min 88,2 klux 9,1 C 29,4 C
20.06.2005 14:40 29,8 C 38,7 C 28 % 1017 hPa 0,0 l/m 2,7 m/s (1 Bft) SO45 135 5,00 min 87,7 klux 9,3 C 29,5 C
20.06.2005 14:45 29,8 C 38,4 C 27 % 1017 hPa 0,0 l/m 3,6 m/s (1 Bft) S67.5 185 5,00 min 87,5 klux 8,8 C 29,2 C
20.06.2005 14:50 29,9 C 38,4 C 27 % 1017 hPa 0,0 l/m 4,5 m/s (1 Bft) SO67.5 140 5,00 min 87,0 klux 8,9 C 29,2 C
20.06.2005 14:55 29,7 C 38,4 C 27 % 1017 hPa 0,0 l/m 2,3 m/s (1 Bft) SW67.5 225 5,00 min 87,0 klux 8,7 C 29,5 C
20.06.2005 15:00 30,0 C 38,7 C 27 % 1017 hPa 0,0 l/m 3,8 m/s (1 Bft) SO67.5 140 5,00 min 86,6 klux 8,9 C 29,4 C
20.06.2005 15:05 30,1 C 38,7 C 26 % 1017 hPa 0,0 l/m 2,9 m/s (1 Bft) SO45 145 5,00 min 86,6 klux 8,5 C 29,8 C
20.06.2005 15:10 29,8 C 38,6 C 27 % 1017 hPa 0,0 l/m 3,1 m/s (1 Bft) SO45 135 5,00 min 86,8 klux 8,8 C 29,4 C
20.06.2005 15:15 30,1 C 38,6 C 27 % 1017 hPa 0,0 l/m 3,9 m/s (1 Bft) SO22.5 135 5,00 min 85,9 klux 9,0 C 29,5 C
20.06.2005 15:20 30,2 C 38,9 C 26 % 1017 hPa 0,0 l/m 3,6 m/s (1 Bft) S-SO45 150 5,00 min 85,8 klux 8,5 C 29,7 C
20.06.2005 15:25 30,0 C 38,9 C 26 % 1017 hPa 0,0 l/m 2,9 m/s (1 Bft) S67.5 185 5,00 min 85,3 klux 8,4 C 29,7 C
20.06.2005 15:30 30,1 C 38,8 C 26 % 1017 hPa 0,0 l/m 2,9 m/s (1 Bft) S67.5 185 5,00 min 82,7 klux 8,5 C 29,8 C
20.06.2005 15:35 30,5 C 39,4 C 28 % 1017 hPa 0,0 l/m 2,7 m/s (1 Bft) O-SO45 120 5,00 min 83,8 klux 9,9 C 30,3 C
20.06.2005 15:40 30,5 C 39,1 C 27 % 1017 hPa 0,0 l/m 2,8 m/s (1 Bft) S67.5 185 5,00 min 77,7 klux 9,4 C 30,2 C
20.06.2005 15:45 30,5 C 38,7 C 27 % 1017 hPa 0,0 l/m 2,7 m/s (1 Bft) S-SO45 150 5,00 min 79,6 klux 9,4 C 30,3 C
20.06.2005 15:50 30,4 C 38,5 C 26 % 1017 hPa 0,0 l/m 3,9 m/s (1 Bft) O-SO67.5 110 5,00 min 79,6 klux 8,7 C 29,9 C
20.06.2005 15:55 30,0 C 38,5 C 27 % 1017 hPa 0,0 l/m 3,8 m/s (1 Bft) O-SO45 105 5,00 min 80,8 klux 8,9 C 29,4 C
20.06.2005 16:00 29,9 C 39,1 C 27 % 1017 hPa 0,0 l/m 4,3 m/s (1 Bft) O-SO22.5 110 5,00 min 80,0 klux 8,9 C 29,2 C
20.06.2005 16:05 30,1 C 39,1 C 25 % 1017 hPa 0,0 l/m 3,1 m/s (1 Bft) O-SO67.5 120 5,00 min 81,7 klux 7,9 C 29,7 C
20.06.2005 16:10 30,3 C 39,7 C 26 % 1017 hPa 0,0 l/m 3,6 m/s (1 Bft) SO45 125 5,00 min 78,5 klux 8,6 C 29,8 C
20.06.2005 16:15 30,2 C 39,7 C 26 % 1017 hPa 0,0 l/m 2,9 m/s (1 Bft) SO45 135 5,00 min 73,1 klux 8,5 C 29,9 C
20.06.2005 16:20 29,6 C 39,4 C 26 % 1017 hPa 0,0 l/m 2,4 m/s (1 Bft) O22.5 90 5,00 min 72,6 klux 8,0 C 29,4 C
20.06.2005 16:25 30,2 C 39,7 C 27 % 1017 hPa 0,0 l/m 1,9 m/s (1 Bft) O45 100 5,00 min 78,5 klux 9,1 C 30,2 C
20.06.2005 16:30 30,3 C 40,1 C 26 % 1016 hPa 0,0 l/m 4,3 m/s (1 Bft) O-SO45 115 5,00 min 77,0 klux 8,6 C 29,7 C
20.06.2005 16:35 30,4 C 40,1 C 26 % 1016 hPa 0,0 l/m 3,7 m/s (1 Bft) SO67.5 135 5,00 min 75,7 klux 8,7 C 29,9 C
20.06.2005 16:40 30,8 C 40,6 C 26 % 1016 hPa 0,0 l/m 2,6 m/s (1 Bft) S67.5 170 5,00 min 67,0 klux 9,1 C 30,6 C
20.06.2005 16:45 30,8 C 40,0 C 26 % 1016 hPa 0,0 l/m 2,4 m/s (1 Bft) S-SO67.5 155 5,00 min 67,4 klux 9,1 C 30,6 C
20.06.2005 16:50 30,9 C 40,3 C 26 % 1016 hPa 0,0 l/m 0,3 m/s (0 Bft) S67.5 190 5,00 min 69,1 klux 9,1 C 30,9 C
20.06.2005 16:55 31,0 C 40,5 C 26 % 1016 hPa 0,0 l/m 2,6 m/s (1 Bft) S-SO67.5 150 5,00 min 72,5 klux 9,2 C 30,8 C
20.06.2005 17:00 30,6 C 40,8 C 27 % 1016 hPa 0,0 l/m 3,1 m/s (1 Bft) SO45 125 5,00 min 72,2 klux 9,4 C 30,3 C
20.06.2005 17:05 30,4 C 40,7 C 26 % 1016 hPa 0,0 l/m 3,9 m/s (1 Bft) O-SO45 115 5,00 min 68,9 klux 8,7 C 29,9 C
20.06.2005 17:10 30,5 C 41,0 C 27 % 1016 hPa 0,0 l/m 3,8 m/s (1 Bft) O-SO67.5 120 5,00 min 68,1 klux 9,4 C 30,0 C
20.06.2005 17:15 30,7 C 41,1 C 26 % 1016 hPa 0,0 l/m 3,4 m/s (1 Bft) SO45 130 5,00 min 65,0 klux 9,0 C 30,3 C
20.06.2005 17:20 30,6 C 40,8 C 26 % 1016 hPa 0,0 l/m 3,4 m/s (1 Bft) SO67.5 140 5,00 min 60,1 klux 8,9 C 30,2 C
20.06.2005 17:25 30,4 C 40,8 C 27 % 1016 hPa 0,0 l/m 3,6 m/s (1 Bft) O-SO22.5 115 5,00 min 58,3 klux 9,3 C 30,0 C
20.06.2005 17:30 30,0 C 40,9 C 27 % 1016 hPa 0,0 l/m 2,8 m/s (1 Bft) SO67.5 130 5,00 min 55,9 klux 8,9 C 29,7 C
20.06.2005 17:35 30,0 C 40,0 C 27 % 1016 hPa 0,0 l/m 0,3 m/s (0 Bft) O22.5 95 0,00 min 45,7 klux 8,9 C 30,0 C
20.06.2005 17:40 30,3 C 40,2 C 27 % 1016 hPa 0,0 l/m 0,6 m/s (0 Bft) SO67.5 135 5,00 min 62,5 klux 9,2 C 30,3 C
20.06.2005 17:45 30,3 C 40,2 C 26 % 1016 hPa 0,0 l/m 3,8 m/s (1 Bft) SO45 140 5,00 min 62,3 klux 8,6 C 29,8 C
20.06.2005 17:50 30,5 C 39,8 C 26 % 1016 hPa 0,0 l/m 3,3 m/s (1 Bft) SO22.5 130 5,00 min 57,2 klux 8,8 C 30,1 C
20.06.2005 17:55 31,0 C 39,6 C 26 % 1016 hPa 0,0 l/m 1,5 m/s (1 Bft) S-SO22.5 155 5,00 min 60,7 klux 9,2 C 31,0 C
20.06.2005 18:00 31,0 C 39,6 C 25 % 1016 hPa 0,0 l/m 2,0 m/s (1 Bft) SO22.5 145 5,00 min 58,0 klux 8,6 C 31,0 C
20.06.2005 18:05 31,0 C 39,5 C 26 % 1016 hPa 0,0 l/m 2,1 m/s (1 Bft) S-SW67.5 195 5,00 min 59,1 klux 9,2 C 30,9 C
20.06.2005 18:10 31,0 C 39,7 C 26 % 1016 hPa 0,0 l/m 1,7 m/s (1 Bft) S-SW45 205 5,00 min 59,4 klux 9,2 C 31,0 C
20.06.2005 18:15 30,8 C 39,5 C 28 % 1016 hPa 0,0 l/m 2,6 m/s (1 Bft) S-SO45 155 5,00 min 57,0 klux 10,2 C 30,6 C
20.06.2005 18:20 30,7 C 39,5 C 28 % 1016 hPa 0,0 l/m 3,6 m/s (1 Bft) SO67.5 140 5,00 min 43,7 klux 10,1 C 30,3 C
20.06.2005 18:25 30,1 C 38,1 C 27 % 1016 hPa 0,0 l/m 2,2 m/s (1 Bft) S67.5 175 5,00 min 43,0 klux 9,0 C 30,0 C
20.06.2005 18:30 30,4 C 38,3 C 28 % 1016 hPa 0,0 l/m 1,7 m/s (1 Bft) S67.5 175 5,00 min 48,3 klux 9,8 C 30,4 C
20.06.2005 18:35 30,4 C 38,3 C 28 % 1016 hPa 0,0 l/m 2,5 m/s (1 Bft) S-SO67.5 165 5,00 min 47,6 klux 9,8 C 30,2 C
20.06.2005 18:40 30,2 C 38,1 C 28 % 1016 hPa 0,0 l/m 2,0 m/s (1 Bft) S67.5 180 5,00 min 48,1 klux 9,6 C 30,1 C
20.06.2005 18:45 30,1 C 38,1 C 28 % 1016 hPa 0,0 l/m 1,4 m/s (1 Bft) S45 185 5,00 min 46,8 klux 9,6 C 30,1 C
20.06.2005 18:50 29,8 C 38,0 C 30 % 1016 hPa 0,0 l/m 3,0 m/s (1 Bft) SO45 140 5,00 min 40,7 klux 10,3 C 29,4 C
20.06.2005 18:55 29,7 C 37,5 C 30 % 1016 hPa 0,0 l/m 1,4 m/s (1 Bft) S45 170 5,00 min 45,2 klux 10,3 C 29,7 C
20.06.2005 19:00 29,8 C 37,6 C 30 % 1016 hPa 0,0 l/m 1,0 m/s (0 Bft) SO45 125 5,00 min 44,0 klux 10,3 C 29,8 C
20.06.2005 19:05 29,7 C 38,0 C 30 % 1016 hPa 0,0 l/m 2,6 m/s (1 Bft) SO67.5 130 5,00 min 43,3 klux 10,3 C 29,4 C
20.06.2005 19:10 31,9 C 38,2 C 27 % 1016 hPa 0,0 l/m 1,6 m/s (1 Bft) SW45 225 5,00 min 41,7 klux 10,5 C 31,9 C
20.06.2005 19:15 32,5 C 38,1 C 25 % 1016 hPa 0,0 l/m 1,9 m/s (1 Bft) W-SW45 240 5,00 min 41,0 klux 9,9 C 32,5 C
20.06.2005 19:20 34,0 C 38,2 C 22 % 1016 hPa 0,0 l/m 1,9 m/s (1 Bft) S-SO45 160 5,00 min 39,3 klux 9,2 C 34,0 C
20.06.2005 19:25 34,5 C 38,2 C 21 % 1016 hPa 0,0 l/m 2,2 m/s (1 Bft) S-SO45 160 5,00 min 38,1 klux 9,0 C 34,5 C
20.06.2005 19:30 32,5 C 36,9 C 23 % 1016 hPa 0,0 l/m 1,4 m/s (1 Bft) S-SO45 165 5,00 min 31,9 klux 8,7 C 32,5 C
20.06.2005 19:35 33,1 C 36,4 C 21 % 1016 hPa 0,0 l/m 1,9 m/s (1 Bft) S-SO67.5 150 5,00 min 33,9 klux 7,8 C 33,1 C
20.06.2005 19:40 34,7 C 36,4 C 21 % 1016 hPa 0,0 l/m 0,3 m/s (0 Bft) S45 185 5,00 min 33,7 klux 9,1 C 34,7 C
20.06.2005 19:45 33,3 C 36,3 C 22 % 1016 hPa 0,0 l/m 0,3 m/s (0 Bft) S45 170 5,00 min 31,6 klux 8,7 C 33,3 C
20.06.2005 19:50 33,9 C 35,9 C 22 % 1016 hPa 0,0 l/m 1,6 m/s (1 Bft) S-SO45 160 5,00 min 29,3 klux 9,2 C 33,9 C
20.06.2005 19:55 31,9 C 35,4 C 25 % 1016 hPa 0,0 l/m 1,2 m/s (1 Bft) S-SO22.5 150 5,00 min 27,0 klux 9,4 C 31,9 C
20.06.2005 20:00 32,0 C 35,1 C 25 % 1016 hPa 0,0 l/m 0,2 m/s (0 Bft) S22.5 180 5,00 min 27,2 klux 9,5 C 32,0 C
20.06.2005 20:05 31,2 C 34,7 C 26 % 1016 hPa 0,0 l/m 0,0 m/s (0 Bft) S-SO 155 5,00 min 27,2 klux 9,4 C 31,2 C
20.06.2005 20:10 31,0 C 34,3 C 28 % 1016 hPa 0,0 l/m 0,9 m/s (0 Bft) S-SO22.5 155 5,00 min 25,7 klux 10,3 C 31,0 C
20.06.2005 20:15 29,8 C 34,1 C 31 % 1016 hPa 0,0 l/m 0,7 m/s (0 Bft) S-SO22.5 160 5,00 min 22,5 klux 10,8 C 29,8 C
20.06.2005 20:20 29,2 C 33,4 C 32 % 1016 hPa 0,0 l/m 0,0 m/s (0 Bft) S-SO22.5 160 5,00 min 22,7 klux 10,8 C 29,2 C
20.06.2005 20:25 28,9 C 32,9 C 33 % 1016 hPa 0,0 l/m 0,8 m/s (0 Bft) S-SO 155 5,00 min 21,0 klux 11,0 C 28,9 C
20.06.2005 20:30 28,0 C 32,4 C 35 % 1016 hPa 0,0 l/m 0,0 m/s (0 Bft) S-SO 160 5,00 min 19,7 klux 11,1 C 28,0 C
20.06.2005 20:35 27,5 C 32,0 C 38 % 1016 hPa 0,0 l/m 0,0 m/s (0 Bft) S-SO 160 5,00 min 18,2 klux 11,9 C 27,5 C
20.06.2005 20:40 27,2 C 31,2 C 38 % 1016 hPa 0,0 l/m 0,1 m/s (0 Bft) O-NO22.5 60 5,00 min 14,8 klux 11,6 C 27,2 C
20.06.2005 20:45 27,0 C 30,5 C 40 % 1016 hPa 0,0 l/m 1,0 m/s (0 Bft) NO 55 5,00 min 14,9 klux 12,2 C 27,0 C
20.06.2005 20:50 26,1 C 30,1 C 43 % 1016 hPa 0,0 l/m 0,0 m/s (0 Bft) NO 55 5,00 min 12,3 klux 12,5 C 26,1 C
20.06.2005 20:55 25,8 C 29,4 C 44 % 1016 hPa 0,0 l/m 0,0 m/s (0 Bft) NO 55 5,00 min 9,1 klux 12,6 C 25,8 C
20.06.2005 21:00 25,2 C 28,9 C 46 % 1016 hPa 0,0 l/m 0,0 m/s (0 Bft) NO 55 5,00 min 10,2 klux 12,7 C 25,2 C
20.06.2005 21:05 24,6 C 28,6 C 47 % 1016 hPa 0,0 l/m 0,0 m/s (0 Bft) NO 55 5,00 min 8,45 klux 12,5 C 24,6 C
20.06.2005 21:10 24,4 C 28,1 C 48 % 1016 hPa 0,0 l/m 0,0 m/s (0 Bft) NO 55 0,00 min 2,48 klux 12,7 C 24,4 C
20.06.2005 21:15 23,9 C 27,6 C 50 % 1016 hPa 0,0 l/m 0,0 m/s (0 Bft) NO 55 0,00 min 2,24 klux 12,8 C 23,9 C
20.06.2005 21:20 23,6 C 27,1 C 51 % 1016 hPa 0,0 l/m 0,0 m/s (0 Bft) NO 55 0,00 min 1,82 klux 12,9 C 23,6 C
20.06.2005 21:25 23,5 C 26,8 C 54 % 1016 hPa 0,0 l/m 0,0 m/s (0 Bft) NO 55 0,00 min 1,50 klux 13,6 C 23,5 C
20.06.2005 21:30 23,3 C 26,4 C 53 % 1016 hPa 0,0 l/m 0,0 m/s (0 Bft) NO 55 0,00 min 1,12 klux 13,2 C 23,3 C
20.06.2005 21:35 22,8 C 26,0 C 55 % 1016 hPa 0,0 l/m 0,0 m/s (0 Bft) NO 55 0,00 min 825 lux 13,3 C 22,8 C
20.06.2005 21:40 22,4 C 25,7 C 57 % 1016 hPa 0,0 l/m 0,0 m/s (0 Bft) NO 55 0,00 min 570 lux 13,5 C 22,4 C
20.06.2005 21:45 22,3 C 25,4 C 57 % 1016 hPa 0,0 l/m 0,0 m/s (0 Bft) NO 55 0,00 min 389 lux 13,4 C 22,3 C
20.06.2005 21:50 22,0 C 25,0 C 59 % 1016 hPa 0,0 l/m 0,0 m/s (0 Bft) NO 55 0,00 min 265 lux 13,6 C 22,0 C
20.06.2005 21:55 22,0 C 24,6 C 60 % 1016 hPa 0,0 l/m 0,0 m/s (0 Bft) NO 55 0,00 min 215 lux 13,9 C 22,0 C
20.06.2005 22:00 21,7 C 24,4 C 61 % 1017 hPa 0,0 l/m 0,0 m/s (0 Bft) NO 55 0,00 min 138 lux 13,8 C 21,7 C
20.06.2005 22:05 22,0 C 24,1 C 61 % 1017 hPa 0,0 l/m 0,3 m/s (0 Bft) O-NO22.5 70 0,00 min 86 lux 14,1 C 22,0 C
20.06.2005 22:10 21,7 C 23,8 C 62 % 1017 hPa 0,0 l/m 0,0 m/s (0 Bft) O-NO 60 0,00 min 53 lux 14,1 C 21,7 C
20.06.2005 22:15 21,7 C 23,6 C 64 % 1017 hPa 0,0 l/m 0,0 m/s (0 Bft) O-NO 60 0,00 min 33 lux 14,6 C 21,7 C
20.06.2005 22:20 21,2 C 23,4 C 63 % 1017 hPa 0,0 l/m 0,0 m/s (0 Bft) O-NO 60 0,00 min 20 lux 13,9 C 21,2 C
20.06.2005 22:25 20,8 C 23,2 C 64 % 1017 hPa 0,0 l/m 0,0 m/s (0 Bft) O-NO 60 0,00 min 15 lux 13,7 C 20,8 C
20.06.2005 22:30 20,4 C 23,0 C 65 % 1017 hPa 0,0 l/m 0,0 m/s (0 Bft) O-NO 60 0,00 min 11 lux 13,6 C 20,4 C
20.06.2005 22:35 20,7 C 22,8 C 66 % 1017 hPa 0,0 l/m 0,0 m/s (0 Bft) O-NO 60 0,00 min 9 lux 14,1 C 20,7 C
20.06.2005 22:40 20,2 C 22,5 C 67 % 1017 hPa 0,0 l/m 0,0 m/s (0 Bft) NO 55 0,00 min 6 lux 13,9 C 20,2 C
20.06.2005 22:45 19,9 C 22,3 C 68 % 1017 hPa 0,0 l/m 0,0 m/s (0 Bft) NO 55 0,00 min 5 lux 13,8 C 19,9 C
20.06.2005 22:50 19,8 C 22,2 C 69 % 1017 hPa 0,0 l/m 0,0 m/s (0 Bft) NO 55 0,00 min 5 lux 13,9 C 19,8 C
20.06.2005 22:55 19,6 C 21,9 C 70 % 1017 hPa 0,0 l/m 0,0 m/s (0 Bft) NO 55 0,00 min 4 lux 14,0 C 19,6 C
20.06.2005 23:00 19,5 C 21,7 C 71 % 1017 hPa 0,0 l/m 0,0 m/s (0 Bft) NO 55 0,00 min 4 lux 14,1 C 19,5 C
20.06.2005 23:05 19,5 C 21,6 C 72 % 1017 hPa 0,0 l/m 0,0 m/s (0 Bft) NO 55 0,00 min 2 lux 14,3 C 19,5 C
20.06.2005 23:10 19,3 C 21,4 C 72 % 1017 hPa 0,0 l/m 0,0 m/s (0 Bft) NO 55 0,00 min 2 lux 14,1 C 19,3 C
20.06.2005 23:15 19,0 C 21,2 C 71 % 1017 hPa 0,0 l/m 0,0 m/s (0 Bft) NO 55 0,00 min 2 lux 13,6 C 19,0 C
20.06.2005 23:20 18,9 C 21,1 C 74 % 1017 hPa 0,0 l/m 0,0 m/s (0 Bft) NO 55 0,00 min 1 lux 14,2 C 18,9 C
20.06.2005 23:25 18,9 C 21,1 C 75 % 1017 hPa 0,0 l/m 0,0 m/s (0 Bft) NO 55 0,00 min 0 lux 14,4 C 18,9 C
20.06.2005 23:30 18,7 C 20,8 C 74 % 1017 hPa 0,0 l/m 0,0 m/s (0 Bft) NO 55 0,00 min 0 lux 14,0 C 18,7 C
20.06.2005 23:35 18,5 C 20,6 C 75 % 1017 hPa 0,0 l/m 0,0 m/s (0 Bft) NO 55 0,00 min 0 lux 14,0 C 18,5 C
20.06.2005 23:40 18,4 C 20,5 C 75 % 1017 hPa 0,0 l/m 0,0 m/s (0 Bft) NO 55 0,00 min 0 lux 13,9 C 18,4 C
20.06.2005 23:45 18,5 C 20,4 C 76 % 1017 hPa 0,0 l/m 0,0 m/s (0 Bft) NO 55 0,00 min 0 lux 14,2 C 18,5 C
20.06.2005 23:50 18,3 C 20,2 C 76 % 1017 hPa 0,0 l/m 0,0 m/s (0 Bft) NO 55 0,00 min 0 lux 14,0 C 18,3 C
20.06.2005 23:55 18,4 C 20,2 C 76 % 1017 hPa 0,0 l/m 0,0 m/s (0 Bft) NO 55 0,00 min 0 lux 14,1 C 18,4 C
_ Min-Zeit 05:45 05:45 19:25 16:30 - 00:00 - - - - 13:00 05:45
Minimum _ 11,2 C 12,3 C 21 % 1016 hPa - 0,0 m/s (0 Bft) - - - - 7,5 C 11,2 C
_ Max-Zeit 19:40 17:15 06:40 00:00 00:00 10:05 - - 06:25 13:50 06:50 19:40
Maximum _ 34,7 C 41,1 C 92 % 1019 hPa 0,0 l/m 4,6 m/s
O (3 Bft)
- - 5,00 min 90,2 klux 15,0 C 34,7 C
Durchschnitt _ 22,6 C 25,5 C 52 % 1018 hPa #0,0 l/m 1,4 m/s (1 Bft) O-SO - #14:40 h 37,7 klux 10,3 C 22,3 C